This is the latest recevied weather packets stored in our database for station/object WX4ET. If no packets are shown the sender has not sent any weather packets the latest 10 day(s).
| Time | Temp. | Humidity | Pressure | Rain* | Wind** | Luminosity | Snow |
|---|---|---|---|---|---|---|---|
| 1777399404 | 22.22° C | 74% | 1013.3 hPa | 0 mm | - | 499 W/m² | - |
| 1777399101 | 22.22° C | 73% | 1013.4 hPa | 0 mm | - | 924 W/m² | - |
| 1777398799 | 22.22° C | 73% | 1013.2 hPa | 0 mm | - | 399 W/m² | - |
| 1777398496 | 22.22° C | 73% | 1013.4 hPa | 0 mm | - | 763 W/m² | - |
| 1777398192 | 21.67° C | 75% | 1013.3 hPa | 0 mm | - | 501 W/m² | - |
| 1777397889 | 22.78° C | 74% | 1013.4 hPa | 0 mm | - | 277 W/m² | - |
| 1777397584 | 22.22° C | 74% | 1013.2 hPa | 0 mm | - | 265 W/m² | - |
| 1777397281 | 22.22° C | 75% | 1013.2 hPa | 0 mm | - | 652 W/m² | - |
| 1777396978 | 21.67° C | 74% | 1013.4 hPa | 0 mm | - | 702 W/m² | - |
| 1777396675 | 21.67° C | 75% | 1013.1 hPa | 0 mm | - | 655 W/m² | - |
| 1777396371 | 21.67° C | 76% | 1013.3 hPa | 0 mm | - | 759 W/m² | - |
| 1777396068 | 21.67° C | 77% | 1013.4 hPa | 0 mm | - | 737 W/m² | - |
| 1777395763 | 21.67° C | 77% | 1013.5 hPa | 0 mm | - | 778 W/m² | - |
| 1777395459 | 20.56° C | 78% | 1013.3 hPa | 0 mm | - | 780 W/m² | - |
| 1777395156 | 20.56° C | 79% | 1013.5 hPa | 0 mm | - | 242 W/m² | - |
| 1777394853 | 21.11° C | 79% | 1013.5 hPa | 0 mm | - | 482 W/m² | - |
| 1777394549 | 21.11° C | 80% | 1013.6 hPa | 0 mm | - | 765 W/m² | - |
| 1777394246 | 20.56° C | 79% | 1013.5 hPa | 0 mm | - | 756 W/m² | - |
| 1777393942 | 20° C | 83% | 1013.7 hPa | 0 mm | - | 868 W/m² | - |
| 1777393641 | 20° C | 83% | 1013.7 hPa | 0 mm | - | 278 W/m² | - |
| 1777393337 | 19.44° C | 83% | 1013.9 hPa | 0 mm | - | 228 W/m² | - |
| 1777393034 | 19.44° C | 84% | 1013.7 hPa | 0 mm | - | 259 W/m² | - |
| 1777392730 | 19.44° C | 83% | 1013.8 hPa | 0 mm | - | 333 W/m² | - |
| 1777392426 | 19.44° C | 84% | 1013.9 hPa | 0 mm | - | 350 W/m² | - |
| 1777392121 | 19.44° C | 83% | 1014.1 hPa | 0 mm | - | 547 W/m² | - |
* Rain latest hour (hover to see other rain measurements)
** Current wind speed in m/s (hover to see current wind gust speed)